Location: Unspecified
(0.0000°N, 0.0000°E)
Time: 03:56:15
(UTC+00:00)

Tiangong 2 - Pass Details

Date: 30 March 2017
Orbit: 391 x 396 km, 42.8° (Epoch: 28 June)

Event Time Altitude Azimuth Distance (km) Brightness Sun altitude
Rises 18:53:24 0° 251° (WSW) 2,277 6.3 -12.2°
Reaches altitude 10° 18:55:59 10° 273° (W) 1,417 5.4 -12.9°
Maximum altitude 18:58:07 17° 315° (NW) 1,089 4.0 -13.4°
Drops below altitude 10° 19:00:15 10° 357° (N) 1,410 4.0 -13.9°
Sets 19:02:50 0° 19° (NNE) 2,260 4.8 -14.6°
